Location: Molino di Ancona
(43.6167°N, 13.3667°E)
Time: 15:36:48
(UTC+00:00)

N. Korean satellite - Visible Passes

Search period start: 08 March 2021 00:00
Search period end: 18 March 2021 00:00
Orbit: 451 x 502 km, 97.2° (Epoch: 07 March)

Date Brightness Start Highest point End Pass type
(mag) Time Alt. Az. Time Alt. Az. Time Alt. Az.
08 Mar 6.5 04:45:12 10° N 04:48:46 69° WNW 04:52:21 10° SSW visible
09 Mar 7.5 04:18:28 10° NNE 04:21:59 51° E 04:25:31 10° S visible
10 Mar 9.1 03:52:08 10° NE 03:55:06 24° E 03:58:05 10° SSE visible
11 Mar 10.0 03:26:45 10° ENE 03:28:07 12° E 03:29:30 10° ESE visible
12 Mar 6.7 04:31:17 10° NNE 04:34:55 78° ESE 04:38:33 10° S visible
13 Mar 8.4 04:04:43 10° NNE 04:08:04 34° E 04:11:25 10° SSE visible
14 Mar 9.7 03:38:41 10° NE 03:41:07 17° E 03:43:32 10° SE visible
15 Mar 6.5 04:44:08 10° N 04:47:46 71° WNW 04:51:25 10° SSW visible
16 Mar 7.6 04:17:23 10° NNE 04:20:57 50° E 04:24:31 10° S visible
17 Mar 9.2 03:51:01 10° NE 03:54:01 24° E 03:57:02 10° SSE visible
